FDX251 KLAX-KORD

Flight info

Callsign FDX251
Flight time N/A
Altitude 35000
Route DOTSS2 CLEEE PKE J96 CIM SLN IRK BENKY6
Aircraft B77L/H-SDE1E2E3FGHIJ2J3J4J5M1RWXY/LB1D1

Departure

Time 2026-04-26 01:57
Airport Los Angeles International Airport (KLAX)

Arrival

Time N/A
Airport Chicago O'Hare International Airport (KORD)
Time Latitude Longitude Altitude Speed Heading
2026-04-26 01:37 33.93404 -118.38838 130 ft 0 kts 173°
2026-04-26 01:47 33.93410 -118.38839 124 ft 2 kts 173°
2026-04-26 01:47 33.93430 -118.38841 126 ft 3 kts 173°
2026-04-26 01:48 33.93450 -118.38844 124 ft 3 kts 170°
2026-04-26 01:48 33.93470 -118.38849 124 ft 3 kts 166°
2026-04-26 01:48 33.93489 -118.38855 125 ft 3 kts 160°
2026-04-26 01:48 33.93508 -118.38864 124 ft 3 kts 153°
2026-04-26 01:49 33.93525 -118.38876 125 ft 3 kts 142°
2026-04-26 01:49 33.93539 -118.38891 124 ft 3 kts 124°
2026-04-26 01:49 33.93547 -118.38909 124 ft 3 kts 95°
2026-04-26 01:49 33.93547 -118.38921 124 ft 2 kts 83°
2026-04-26 01:50 33.93545 -118.38943 124 ft 3 kts 83°
2026-04-26 01:50 33.93544 -118.38957 124 ft 0 kts 83°
2026-04-26 01:53 33.93544 -118.38954 125 ft 3 kts 83°
2026-04-26 01:54 33.93552 -118.38877 126 ft 12 kts 83°
2026-04-26 01:54 33.93562 -118.38776 128 ft 12 kts 83°
2026-04-26 01:54 33.93573 -118.38674 127 ft 12 kts 83°
2026-04-26 01:54 33.93583 -118.38574 127 ft 12 kts 83°
2026-04-26 01:55 33.93593 -118.38472 130 ft 12 kts 83°
2026-04-26 01:55 33.93602 -118.38375 129 ft 7 kts 83°
2026-04-26 01:55 33.93608 -118.38327 126 ft 6 kts 81°
2026-04-26 01:55 33.93645 -118.38282 126 ft 10 kts 10°
2026-04-26 01:56 33.93720 -118.38312 127 ft 14 kts 303°
2026-04-26 01:56 33.93722 -118.38429 125 ft 12 kts 264°
2026-04-26 01:56 33.93695 -118.38689 126 ft 64 kts 263°
2026-04-26 01:56 33.93611 -118.39497 126 ft 130 kts 263°
2026-04-26 01:57 33.93475 -118.40812 200 ft 175 kts 262°
2026-04-26 01:57 33.93317 -118.42273 750 ft 179 kts 261°
2026-04-26 01:57 33.93120 -118.43796 1357 ft 188 kts 261°
2026-04-26 01:57 33.92923 -118.45355 1945 ft 190 kts 260°
2026-04-26 01:58 33.92462 -118.46926 2293 ft 207 kts 242°
2026-04-26 01:58 33.91595 -118.48319 2841 ft 213 kts 228°
2026-04-26 01:58 33.90560 -118.49583 3561 ft 209 kts 228°
2026-04-26 01:58 33.89501 -118.50874 3916 ft 228 kts 221°
2026-04-26 01:59 33.88074 -118.51879 4236 ft 251 kts 203°
2026-04-26 01:59 33.86310 -118.52294 4831 ft 264 kts 182°
2026-04-26 01:59 33.84469 -118.52183 5485 ft 268 kts 180°
2026-04-26 01:59 33.82562 -118.52131 6033 ft 279 kts 182°
2026-04-26 02:00 33.80572 -118.52085 6387 ft 295 kts 182°
2026-04-26 02:00 33.78514 -118.52055 6723 ft 291 kts 182°
2026-04-26 02:00 33.76536 -118.52033 6656 ft 282 kts 183°
2026-04-26 02:00 33.74610 -118.52030 6999 ft 277 kts 183°
2026-04-26 02:01 33.72660 -118.51991 6849 ft 280 kts 177°
2026-04-26 02:01 33.70783 -118.51450 6853 ft 282 kts 158°
2026-04-26 02:01 33.69169 -118.50097 6952 ft 283 kts 135°
2026-04-26 02:01 33.68081 -118.48107 7023 ft 283 kts 111°
2026-04-26 02:02 33.67530 -118.45865 7580 ft 284 kts 105°
2026-04-26 02:02 33.67040 -118.43498 8109 ft 292 kts 105°
2026-04-26 02:02 33.66500 -118.41190 8761 ft 296 kts 109°
2026-04-26 02:02 33.65840 -118.38808 9368 ft 302 kts 111°
2026-04-26 02:03 33.65154 -118.36442 10067 ft 304 kts 112°
2026-04-26 02:03 33.64553 -118.33974 10690 ft 312 kts 103°
2026-04-26 02:03 33.64336 -118.31367 11214 ft 322 kts 91°
2026-04-26 02:03 33.64344 -118.28663 11573 ft 321 kts 90°
2026-04-26 02:04 33.64392 -118.26008 12369 ft 317 kts 91°
2026-04-26 02:04 33.64433 -118.23379 13041 ft 324 kts 91°
2026-04-26 02:04 33.64461 -118.20617 13611 ft 334 kts 91°
2026-04-26 02:04 33.64466 -118.17716 13839 ft 356 kts 92°
2026-04-26 02:05 33.64455 -118.14683 14109 ft 375 kts 92°
2026-04-26 02:05 33.64443 -118.11481 14577 ft 389 kts 93°
2026-04-26 02:05 33.64436 -118.08192 15049 ft 402 kts 93°
2026-04-26 02:05 33.64423 -118.04756 15378 ft 419 kts 93°
2026-04-26 02:06 33.64397 -118.01205 15770 ft 429 kts 93°
2026-04-26 02:06 33.64402 -117.97611 16373 ft 428 kts 93°
2026-04-26 02:06 33.64430 -117.94038 16920 ft 436 kts 93°
2026-04-26 02:06 33.64449 -117.90338 17105 ft 449 kts 94°
2026-04-26 02:07 33.64447 -117.86610 17130 ft 441 kts 94°
2026-04-26 02:07 33.64447 -117.82977 16987 ft 437 kts 92°
2026-04-26 02:07 33.64597 -117.79296 16800 ft 434 kts 87°
2026-04-26 02:07 33.65014 -117.75759 16982 ft 438 kts 81°
2026-04-26 02:08 33.65695 -117.72154 17157 ft 444 kts 79°
2026-04-26 02:08 33.66421 -117.68551 16993 ft 447 kts 78°
2026-04-26 02:08 33.67149 -117.64945 17069 ft 441 kts 79°
2026-04-26 02:08 33.67857 -117.61334 16824 ft 443 kts 79°
2026-04-26 02:09 33.68557 -117.57790 16855 ft 438 kts 79°
2026-04-26 02:09 33.69265 -117.54222 16927 ft 437 kts 78°
2026-04-26 02:09 33.69981 -117.50679 16986 ft 442 kts 78°
2026-04-26 02:09 33.70711 -117.47063 16949 ft 444 kts 78°
2026-04-26 02:10 33.71425 -117.43453 17070 ft 439 kts 79°
2026-04-26 02:10 33.72115 -117.39909 17052 ft 441 kts 79°
2026-04-26 02:10 33.72807 -117.36265 16984 ft 444 kts 79°
2026-04-26 02:10 33.73452 -117.32679 17094 ft 441 kts 82°
2026-04-26 02:11 33.73990 -117.29016 17002 ft 445 kts 84°
2026-04-26 02:11 33.74424 -117.25337 16821 ft 448 kts 85°
2026-04-26 02:11 33.74734 -117.21638 16764 ft 440 kts 89°
2026-04-26 02:11 33.74882 -117.17985 16905 ft 435 kts 92°
2026-04-26 02:12 33.74914 -117.14359 16958 ft 439 kts 94°
2026-04-26 02:12 33.74891 -117.10650 17201 ft 443 kts 94°
2026-04-26 02:12 33.74836 -117.06996 17698 ft 440 kts 95°
2026-04-26 02:12 33.74750 -117.03255 17530 ft 448 kts 96°
2026-04-26 02:13 33.74659 -116.99555 17383 ft 436 kts 96°
2026-04-26 02:13 33.74579 -116.95995 17395 ft 425 kts 96°
2026-04-26 02:13 33.74497 -116.92405 17485 ft 433 kts 96°
2026-04-26 02:13 33.74407 -116.88699 17841 ft 449 kts 96°
2026-04-26 02:14 33.74316 -116.84947 18316 ft 459 kts 96°
2026-04-26 02:14 33.74224 -116.81059 18844 ft 466 kts 96°
2026-04-26 02:14 33.74132 -116.77163 19498 ft 470 kts 96°
2026-04-26 02:14 33.74041 -116.73214 20101 ft 473 kts 96°
2026-04-26 02:15 33.73948 -116.69224 20730 ft 477 kts 96°
2026-04-26 02:15 33.73852 -116.65248 21345 ft 481 kts 97°
2026-04-26 02:15 33.73753 -116.61241 21885 ft 485 kts 96°
2026-04-26 02:15 33.73653 -116.57150 22400 ft 488 kts 96°
2026-04-26 02:16 33.73551 -116.53104 22895 ft 491 kts 97°
2026-04-26 02:16 33.73443 -116.48949 23397 ft 497 kts 97°
2026-04-26 02:16 33.73334 -116.44813 23829 ft 502 kts 97°
2026-04-26 02:16 33.73226 -116.40572 24309 ft 505 kts 97°
2026-04-26 02:17 33.73113 -116.36361 24815 ft 508 kts 97°
2026-04-26 02:17 33.72995 -116.32098 25281 ft 513 kts 97°
2026-04-26 02:17 33.72876 -116.27787 25721 ft 517 kts 97°
2026-04-26 02:17 33.72758 -116.23494 26134 ft 522 kts 97°
2026-04-26 02:18 33.72637 -116.19097 26558 ft 527 kts 97°
2026-04-26 02:18 33.72516 -116.14656 26989 ft 532 kts 97°
2026-04-26 02:18 33.72624 -116.10213 27394 ft 542 kts 90°
2026-04-26 02:18 33.73109 -116.05675 27818 ft 551 kts 84°
2026-04-26 02:19 33.73919 -116.01111 28238 ft 558 kts 78°
2026-04-26 02:19 33.75079 -115.96667 28667 ft 563 kts 74°
2026-04-26 02:19 33.76361 -115.92164 29034 ft 568 kts 73°
2026-04-26 02:19 33.77657 -115.87692 29344 ft 572 kts 73°
2026-04-26 02:20 33.78967 -115.83152 29717 ft 574 kts 74°
2026-04-26 02:20 33.79824 -115.80149 30029 ft 574 kts 74°
2026-04-26 02:20 33.81529 -115.74081 30674 ft 571 kts 75°
2026-04-26 02:20 33.82773 -115.69588 31097 ft 571 kts 75°
2026-04-26 02:21 33.84023 -115.65042 31508 ft 571 kts 75°
2026-04-26 02:21 33.84844 -115.62044 31791 ft 570 kts 75°
2026-04-26 02:21 33.86092 -115.57481 32249 ft 569 kts 75°
2026-04-26 02:21 33.87337 -115.52937 32645 ft 569 kts 75°
2026-04-26 02:22 33.88559 -115.48466 33131 ft 567 kts 75°
2026-04-26 02:22 33.89798 -115.43929 33511 ft 567 kts 75°
2026-04-26 02:22 33.91016 -115.39464 33879 ft 567 kts 75°
2026-04-26 02:22 33.92250 -115.34936 34216 ft 566 kts 75°
2026-04-26 02:23 33.93471 -115.30453 34539 ft 566 kts 75°
2026-04-26 02:23 33.94687 -115.25979 34675 ft 569 kts 75°
2026-04-26 02:23 33.95927 -115.21398 34724 ft 573 kts 75°
2026-04-26 02:24 33.98387 -115.12302 34738 ft 571 kts 75°
2026-04-26 02:24 34.00825 -115.03269 34747 ft 564 kts 75°
2026-04-26 02:25 34.03236 -114.94294 34741 ft 565 kts 75°
2026-04-26 02:25 34.05661 -114.85233 34733 ft 565 kts 75°
2026-04-26 02:26 34.08069 -114.76210 34736 ft 567 kts 75°
2026-04-26 02:26 34.10483 -114.67147 34725 ft 568 kts 75°
2026-04-26 02:27 34.13010 -114.58122 34721 ft 570 kts 74°
2026-04-26 02:27 34.15605 -114.49084 34714 ft 571 kts 74°
2026-04-26 02:28 34.18194 -114.39967 34715 ft 571 kts 74°
2026-04-26 02:28 34.20741 -114.30896 34719 ft 571 kts 74°
2026-04-26 02:29 34.23279 -114.21824 34717 ft 571 kts 74°
2026-04-26 02:29 34.25817 -114.12734 34717 ft 570 kts 74°
2026-04-26 02:30 34.28335 -114.03682 34737 ft 568 kts 74°
2026-04-26 02:30 34.30855 -113.94584 34730 ft 569 kts 74°
2026-04-26 02:31 34.33352 -113.85529 34740 ft 569 kts 74°
2026-04-26 02:31 34.35850 -113.76443 34739 ft 569 kts 74°
2026-04-26 02:32 34.38338 -113.67367 34736 ft 570 kts 74°
2026-04-26 02:32 34.40835 -113.58232 34736 ft 570 kts 74°
2026-04-26 02:33 34.43311 -113.49137 34745 ft 570 kts 74°
2026-04-26 02:33 34.45800 -113.39970 34745 ft 570 kts 74°
2026-04-26 02:34 34.48262 -113.30866 34758 ft 570 kts 74°
2026-04-26 02:34 34.50718 -113.21759 34760 ft 569 kts 74°
2026-04-26 02:35 34.53168 -113.12641 34764 ft 569 kts 74°
2026-04-26 02:35 34.55605 -113.03542 34766 ft 568 kts 74°
2026-04-26 02:36 34.58038 -112.94427 34764 ft 568 kts 74°
2026-04-26 02:36 34.60460 -112.85320 34778 ft 567 kts 74°
2026-04-26 02:37 34.62881 -112.76186 34827 ft 567 kts 74°
2026-04-26 02:37 34.65289 -112.67073 34880 ft 567 kts 74°
2026-04-26 02:38 34.67687 -112.57966 34921 ft 567 kts 74°
2026-04-26 02:38 34.70094 -112.48792 34944 ft 566 kts 74°
2026-04-26 02:39 34.72336 -112.39642 34945 ft 565 kts 77°
2026-04-26 02:39 34.74393 -112.30445 34931 ft 565 kts 77°
2026-04-26 02:40 34.76447 -112.21262 34886 ft 565 kts 77°
2026-04-26 02:40 34.78551 -112.12007 34838 ft 566 kts 77°
2026-04-26 02:41 34.80646 -112.02814 34895 ft 566 kts 77°
2026-04-26 02:41 34.82737 -111.93597 34926 ft 567 kts 77°
2026-04-26 02:42 34.84833 -111.84307 34945 ft 567 kts 77°
2026-04-26 02:42 34.86907 -111.75074 34940 ft 567 kts 77°
2026-04-26 02:43 34.90013 -111.61178 34915 ft 567 kts 77°
2026-04-26 02:43 34.92067 -111.51945 34888 ft 566 kts 77°
2026-04-26 02:44 34.94127 -111.42658 34881 ft 564 kts 77°
2026-04-26 02:44 34.96158 -111.33462 34859 ft 562 kts 77°
2026-04-26 02:45 34.98180 -111.24272 34851 ft 561 kts 77°
2026-04-26 02:45 35.00190 -111.15102 34840 ft 561 kts 77°
2026-04-26 02:46 35.02192 -111.05934 34855 ft 560 kts 77°
2026-04-26 02:46 35.02859 -111.02869 34873 ft 560 kts 77°
2026-04-26 02:47 35.06250 -110.87231 34908 ft 562 kts 77°
2026-04-26 02:47 35.08237 -110.78019 34925 ft 563 kts 77°
2026-04-26 02:48 35.10223 -110.68774 34934 ft 564 kts 77°
2026-04-26 02:48 35.12207 -110.59501 34908 ft 566 kts 77°
2026-04-26 02:49 35.14189 -110.50202 34872 ft 567 kts 77°
2026-04-26 02:49 35.16175 -110.40847 34837 ft 568 kts 77°
2026-04-26 02:50 35.18162 -110.31443 34826 ft 569 kts 77°
2026-04-26 02:50 35.20125 -110.22118 34825 ft 569 kts 77°
2026-04-26 02:51 35.22090 -110.12743 34809 ft 569 kts 77°
2026-04-26 02:51 35.24043 -110.03389 34819 ft 568 kts 77°
2026-04-26 02:52 35.25990 -109.94027 34824 ft 567 kts 77°
2026-04-26 02:52 35.27925 -109.84677 34831 ft 567 kts 77°
2026-04-26 02:53 35.29861 -109.75284 34831 ft 566 kts 77°
2026-04-26 02:53 35.31771 -109.65977 34828 ft 566 kts 77°
2026-04-26 02:54 35.33679 -109.56645 34831 ft 565 kts 77°
2026-04-26 02:54 35.35573 -109.47339 34836 ft 565 kts 77°
2026-04-26 02:55 35.37478 -109.37940 34832 ft 565 kts 77°
2026-04-26 02:55 35.39365 -109.28589 34865 ft 566 kts 77°
2026-04-26 02:56 35.41246 -109.19228 34896 ft 566 kts 77°
2026-04-26 02:56 35.43118 -109.09873 34920 ft 566 kts 77°
2026-04-26 02:57 35.44983 -109.00508 34930 ft 566 kts 77°
2026-04-26 02:57 35.46843 -108.91135 34976 ft 566 kts 77°
2026-04-26 02:58 35.48990 -108.81810 35006 ft 565 kts 71°
2026-04-26 02:58 35.51076 -108.74230 35011 ft 565 kts 70°
2026-04-26 02:59 35.53637 -108.65068 34991 ft 565 kts 71°
2026-04-26 02:59 35.56541 -108.54475 34942 ft 564 kts 71°
2026-04-26 03:00 35.58606 -108.46825 34899 ft 564 kts 71°
2026-04-26 03:00 35.61057 -108.37694 34854 ft 563 kts 71°
2026-04-26 03:01 35.63500 -108.28567 34853 ft 562 kts 71°
2026-04-26 03:01 35.65948 -108.19411 34844 ft 562 kts 71°
2026-04-26 03:02 35.68376 -108.10299 34848 ft 561 kts 71°
2026-04-26 03:02 35.70794 -108.01191 34854 ft 561 kts 71°
2026-04-26 03:03 35.73216 -107.92037 34848 ft 561 kts 71°
2026-04-26 03:03 35.75631 -107.82877 34842 ft 561 kts 71°
2026-04-26 03:04 35.78032 -107.73736 34841 ft 561 kts 71°
2026-04-26 03:04 35.80419 -107.64616 34840 ft 561 kts 71°
2026-04-26 03:05 35.82799 -107.55494 34845 ft 561 kts 72°
2026-04-26 03:05 35.85188 -107.46304 34837 ft 561 kts 72°
2026-04-26 03:06 35.87553 -107.37176 34835 ft 561 kts 72°
2026-04-26 03:06 35.89919 -107.28008 34836 ft 561 kts 72°
2026-04-26 03:07 35.92274 -107.18853 34833 ft 561 kts 72°
2026-04-26 03:07 35.94629 -107.09665 34829 ft 561 kts 72°
2026-04-26 03:08 35.96986 -107.00436 34830 ft 561 kts 72°
2026-04-26 03:08 35.99315 -106.91286 34836 ft 561 kts 72°
2026-04-26 03:09 36.01647 -106.82088 34832 ft 562 kts 72°
2026-04-26 03:09 36.03969 -106.72899 34841 ft 561 kts 72°
2026-04-26 03:10 36.06288 -106.63688 34847 ft 560 kts 72°
2026-04-26 03:10 36.08603 -106.54458 34882 ft 560 kts 72°
2026-04-26 03:11 36.10895 -106.45287 34902 ft 560 kts 72°
2026-04-26 03:11 36.13184 -106.36093 34900 ft 559 kts 72°
2026-04-26 03:12 36.15464 -106.26906 34883 ft 559 kts 72°
2026-04-26 03:12 36.17734 -106.17723 34859 ft 559 kts 72°
2026-04-26 03:13 36.20007 -106.08492 34811 ft 559 kts 72°
2026-04-26 03:13 36.22264 -105.99293 34816 ft 559 kts 72°
2026-04-26 03:14 36.24512 -105.90102 34808 ft 559 kts 72°
2026-04-26 03:14 36.26766 -105.80847 34806 ft 559 kts 72°
2026-04-26 03:15 36.29003 -105.71625 34824 ft 559 kts 72°
2026-04-26 03:15 36.31229 -105.62417 34876 ft 559 kts 72°
2026-04-26 03:16 36.33461 -105.53146 34947 ft 558 kts 72°
2026-04-26 03:16 36.35670 -105.43943 35011 ft 557 kts 72°
2026-04-26 03:17 36.37859 -105.34790 35062 ft 555 kts 72°
2026-04-26 03:17 36.40056 -105.25562 35074 ft 554 kts 72°
2026-04-26 03:18 36.42231 -105.16389 35053 ft 554 kts 72°
2026-04-26 03:18 36.44396 -105.07230 34981 ft 553 kts 72°
2026-04-26 03:19 36.46553 -104.98068 34887 ft 552 kts 72°
2026-04-26 03:19 36.48720 -104.88933 34792 ft 551 kts 70°
2026-04-26 03:20 36.51607 -104.80159 34758 ft 549 kts 62°
2026-04-26 03:20 36.54909 -104.71579 34796 ft 549 kts 62°
2026-04-26 03:21 36.58193 -104.63029 34840 ft 550 kts 62°
2026-04-26 03:21 36.61446 -104.54405 34873 ft 550 kts 63°
2026-04-26 03:22 36.64667 -104.45773 34896 ft 551 kts 63°
2026-04-26 03:22 36.67881 -104.37126 34881 ft 551 kts 63°
2026-04-26 03:23 36.71105 -104.28440 34852 ft 551 kts 63°
2026-04-26 03:23 36.74308 -104.19794 34813 ft 551 kts 63°